WetterOnline ( http://www.wetteronline.de )

Wetter aktuell Inchenhofen

Aktuelles Wetter: Augsburg/Mühlhausen (477m)

6-stündlich | Neueste Meldungen
Ortszeit Temperatur Wetter
Di, 19.03. 7:00 -2.1° C bewölkt
Di, 19.03. 1:00 -0.9° C wolkenlos
Mo, 18.03. 19:00 3.0° C leicht bewölkt
Mo, 18.03. 13:00 4.5° C bedeckt
Mo, 18.03. 7:00 2.3° C bedeckt
Mo, 18.03. 1:00 2.9° C bewölkt
So, 17.03. 19:00 4.2° C leichter Regen
So, 17.03. 13:00 15.0° C bewölkt
Ortszeit Temperatur Wetter
Di, 19.03. 8:20 -1° C -
Di, 19.03. 8:00 -1.2° C wolkig
Di, 19.03. 7:50 -1.2° C wolkig
Di, 19.03. 7:40 -1.3° C wolkig
Di, 19.03. 7:30 -2.0° C wolkig
Di, 19.03. 7:20 -2.0° C wolkig
Di, 19.03. 7:00 -2.1° C bewölkt
Di, 19.03. 6:30 -2.0° C wolkig
Di, 19.03. 6:00 -3.2° C wolkig
Di, 19.03. 5:30 -3.6° C wolkenlos
Di, 19.03. 5:00 -2.1° C wolkenlos
Ortszeit Relative Feuchte Sichtweite
Di, 19.03. 7:00 97% 4.7 km
Di, 19.03. 1:00 94% 15 km
Mo, 18.03. 19:00 78% 70 km
Mo, 18.03. 13:00 65% 65 km
Mo, 18.03. 7:00 85% 55 km
Mo, 18.03. 1:00 84% 70 km
So, 17.03. 19:00 82% 14 km
So, 17.03. 13:00 34% 70 km
Ortszeit Relative Feuchte Sichtweite
Di, 19.03. 8:20 100% >10 km
Di, 19.03. 8:00 94% 6 km
Di, 19.03. 7:50 94% -
Di, 19.03. 7:40 96% -
Di, 19.03. 7:30 95% 6 km
Di, 19.03. 7:20 95% -
Di, 19.03. 7:00 97% 4.7 km
Di, 19.03. 6:30 96% 4.6 km
Di, 19.03. 6:00 95% 5.0 km
Di, 19.03. 5:30 93% 5.0 km
Di, 19.03. 5:00 96% 4.6 km
Ortszeit Niederschlagsmenge Niederschlagsart
Di, 19.03. 7:00 0.0 l/m2 in 12 Std. -
Di, 19.03. 1:00 0.0 l/m2 in 6 Std. -
Mo, 18.03. 19:00 0.1 l/m2 in 12 Std. Schnee, Regen
Mo, 18.03. 13:00 0.1 l/m2 in 6 Std. Schnee, Regen
Mo, 18.03. 7:00 2 l/m2 in 12 Std. -
Mo, 18.03. 1:00 2 l/m2 in 6 Std. Schnee, Regen
So, 17.03. 19:00 0.2 l/m2 in 12 Std. Regen
So, 17.03. 13:00 0.0 l/m2 in 6 Std. -
Ortszeit Niederschlagsmenge Niederschlagsart
Di, 19.03. 8:20 keine Meldung -
Di, 19.03. 8:00 0.0 l/m2 in 1 Std. -
Di, 19.03. 7:50 keine Meldung -
Di, 19.03. 7:40 keine Meldung -
Di, 19.03. 7:30 0.0 l/m2 in 1 Std. -
Di, 19.03. 7:20 keine Meldung -
Di, 19.03. 7:00 0.0 l/m2 in 1 Std. -
Di, 19.03. 6:30 0.0 l/m2 in 1 Std. -
Di, 19.03. 6:00 0.0 l/m2 in 1 Std. -
Di, 19.03. 5:30 0.0 l/m2 in 1 Std. -
Di, 19.03. 5:00 0.0 l/m2 in 1 Std. -
Ortszeit Stärke Spitze Richtung
km/h Bft. km/h Grad Sektor
Di, 19.03. 7:00 2 1 11 110° O
Di, 19.03. 1:00 7 2 18 190° S
Mo, 18.03. 19:00 15 3 39 250° W
Mo, 18.03. 13:00 13 3 43 320° NW
Mo, 18.03. 7:00 14 3 29 250° W
Mo, 18.03. 1:00 22 4 41 250° W
So, 17.03. 19:00 30 5 67 300° NW
So, 17.03. 13:00 24 4 48 260° W
Ortszeit Stärke Spitze Richtung
km/h Bft. km/h Grad Sektor
Di, 19.03. 8:20 4 1 - 320° NW
Di, 19.03. 8:00 4 1 4 10° N
Di, 19.03. 7:50 4 1 - 10° N
Di, 19.03. 7:40 2 1 - 70° O
Di, 19.03. 7:30 4 1 4 80° O
Di, 19.03. 7:20 4 1 - 80° O
Di, 19.03. 7:00 2 1 6 110° O
Di, 19.03. 6:30 2 1 6 100° O
Di, 19.03. 6:00 4 1 7 130° SO
Di, 19.03. 5:30 2 1 7 200° S
Di, 19.03. 5:00 6 1 11 160° S
Ortszeit Untergrenze Bedeckung Gattung
total tief tief mittel hoch
Di, 19.03. 7:00 540 m 7/8 7/8 - - -
Di, 19.03. 1:00 - 0/8 0/8 - - -
Mo, 18.03. 19:00 2100 m 2/8 2/8 - - -
Mo, 18.03. 13:00 1050 m 8/8 8/8 - - -
Mo, 18.03. 7:00 2100 m 8/8 8/8 - - -
Mo, 18.03. 1:00 2700 m 7/8 7/8 - - -
So, 17.03. 19:00 570 m 7/8 7/8 - - -
So, 17.03. 13:00 1800 m 7/8 6/8 - - -
Ortszeit Bedeckungsgrad in Achtel und Wolkenuntergrenze
Di, 19.03. 8:20 keine Wolken(unter 1500 m)
Di, 19.03. 8:00 1(1050m) 5(2100m)
Di, 19.03. 7:50 1(1050m) 5(2100m)
Di, 19.03. 7:40 1(1020m) 6(2100m)
Di, 19.03. 7:30 6(2100m) 6(2100m)
Di, 19.03. 7:20 6(2100m)
Di, 19.03. 7:00 1(540m) 7(2100m)
Di, 19.03. 6:30 1(630m) 6(2100m)
Di, 19.03. 6:00 5(2100m) 7(2100m)
Di, 19.03. 5:30 keine Wolken
Di, 19.03. 5:00 keine Wolken
Ortszeit Luftdruck NN (hPa) Tendenz (hPa in 3 Std.)
Di, 19.03. 7:00 1028 + 1,3
Di, 19.03. 1:00 1026 + 0,9
Mo, 18.03. 19:00 1023 + 1,6
Mo, 18.03. 13:00 1021 + 1,2
Mo, 18.03. 7:00 1018 + 0,6
Mo, 18.03. 1:00 1017 + 1,4
So, 17.03. 19:00 1011 + 5,4
So, 17.03. 13:00 1004 - 1,0
Ortszeit Luftdruck NN (hPa) Tendenz (hPa in 3 Std.)
Di, 19.03. 8:20 1025 keine Meldung
Di, 19.03. 8:00 1029 + 1,7
Di, 19.03. 7:50 1029 keine Meldung
Di, 19.03. 7:40 1029 keine Meldung
Di, 19.03. 7:30 1029 + 1,5
Di, 19.03. 7:20 1029 keine Meldung
Di, 19.03. 7:00 1028 + 1,3
Di, 19.03. 6:30 1028 + 1,3
Di, 19.03. 6:00 1028 + 1,0
Di, 19.03. 5:30 1028 + 0,6
Di, 19.03. 5:00 1027 + 0,3
Ortszeit Schneehöhe (cm)
Di, 19.03. 7:00 2
Di, 19.03. 1:00 0
Mo, 18.03. 19:00 0
Mo, 18.03. 13:00 0
Mo, 18.03. 7:00 0
Mo, 18.03. 1:00 0
So, 17.03. 19:00 0
So, 17.03. 13:00 0
Ortszeit Schneehöhe (cm)
Di, 19.03. 8:20 -
Di, 19.03. 8:00 2
Di, 19.03. 7:50 2
Di, 19.03. 7:40 2
Di, 19.03. 7:30 2
Di, 19.03. 7:20 2
Di, 19.03. 7:00 2
Di, 19.03. 6:30 2
Di, 19.03. 6:00 2
Di, 19.03. 5:30 2
Di, 19.03. 5:00 2
Link zu dieser Seite / Seite empfehlen

Das Wetter in ...